WB5MTX Weather Reports


time (UTC)temp
C
wind
direction
speed
KPH
gust
KPH
rain 1hr
cm
rain 24hr
cm
rain mn
cm
humidity
%
barometer
mb
20260510000054 31 0 0.0 0.0 0.00 0.00 0.00 43 1007.6
20260509234613 32 0 0.0 4.8 0.00 0.00 0.00 40 1007.5
20260509233054 32 0 0.0 4.8 0.00 0.00 0.00 42 1007.7
20260509231554 32 0 0.0 4.8 0.00 0.00 0.00 42 1007.6
20260509230053 32 189 0.0 3.2 0.00 0.00 0.00 40 1007.7
20260509224553 32 0 0.0 4.8 0.00 0.00 0.00 40 1007.6
20260509223052 32 192 0.0 4.8 0.00 0.00 0.00 40 1007.6
20260509221550 32 0 0.0 4.8 0.00 0.00 0.00 39 1007.7
20260509214554 33 0 0.0 3.2 0.00 0.00 0.00 33 1007.8
20260509213057 32 0 0.0 3.2 0.00 0.00 0.00 35 1007.9
20260509211556 33 0 0.0 4.8 0.00 0.00 0.00 36 1008.0
20260509204601 33 0 0.0 4.8 0.00 0.00 0.00 36 1008.5
20260509203138 33 0 0.0 4.8 0.00 0.00 0.00 39 1008.7
20260509201614 33 0 0.0 6.4 0.00 0.00 0.00 46 1008.8
20260509200100 33 0 0.0 6.4 0.00 0.00 0.00 45 1009.0
20260509194558 33 0 0.0 3.2 0.00 0.00 0.00 40 1009.1
20260509193119 32 0 0.0 6.4 0.00 0.00 0.00 44 1009.2
20260509191612 32 352 1.6 9.7 0.00 0.00 0.00 40 1009.4
20260509190053 32 0 0.0 6.4 0.00 0.00 0.00 41 1009.5
20260509184551 32 0 0.0 8.0 0.00 0.00 0.00 44 1009.6
20260509183054 31 0 0.0 4.8 0.00 0.00 0.00 50 1009.8
20260509181558 30 0 0.0 9.7 0.00 0.00 0.00 47 1010.0
20260509180104 31 0 1.6 12.9 0.00 0.00 0.00 47 1010.1
20260509174556 30 0 0.0 9.7 0.00 0.00 0.00 48 1010.3
20260509173101 30 0 0.0 8.0 0.00 0.00 0.00 48 1010.4
20260509171551 28 0 1.6 17.7 0.00 0.00 0.00 50 1010.7
20260509170100 28 0 1.6 19.3 0.00 0.00 0.00 53 1010.7
20260509164607 28 329 3.2 17.7 0.00 0.00 0.00 52 1010.8
20260509163055 28 0 0.0 14.5 0.00 0.00 0.00 58 1010.8
20260509161600 27 0 1.6 12.9 0.00 0.00 0.00 57 1010.9
20260509160057 27 329 0.0 8.0 0.00 0.00 0.00 57 1010.9
20260509154554 27 0 0.0 9.7 0.00 0.00 0.00 61 1010.8
20260509153053 27 0 0.0 4.8 0.00 0.00 0.00 59 1010.6
20260509151604 26 0 0.0 14.5 0.00 0.00 0.00 63 1010.6
20260509150059 25 0 1.6 9.7 0.00 0.00 0.00 64 1010.6
20260509144553 25 0 3.2 12.9 0.00 0.00 0.00 65 1010.6
20260509143101 25 0 0.0 8.0 0.00 0.00 0.00 70 1010.5
20260509141556 23 0 0.0 9.7 0.00 0.00 0.00 75 1010.7
20260509140059 22 0 3.2 12.9 0.00 0.00 0.00 78 1010.7
20260509134559 21 0 1.6 12.9 0.00 0.00 0.00 80 1010.9
20260509133059 20 0 0.0 9.7 0.00 0.00 0.00 80 1010.8
20260509131602 20 336 0.0 9.7 0.00 0.00 0.00 81 1010.6
20260509130109 19 0 0.0 9.7 0.00 0.00 0.00 81 1010.6
20260509124558 19 274 0.0 4.8 0.00 0.00 0.00 83 1010.7
20260509123059 18 0 0.0 6.4 0.00 0.00 0.00 84 1010.4
20260509121556 18 0 0.0 3.2 0.00 0.00 0.00 84 1010.5
20260509120101 18 0 0.0 0.0 0.00 0.00 0.00 84 1010.4
20260509114551 18 0 0.0 0.0 0.00 0.00 0.00 82 1010.0
20260509113052 18 0 0.0 0.0 0.00 0.00 0.00 82 1009.7
20260509111558 18 0 0.0 0.0 0.00 0.00 0.00 81 1009.2
20260509110053 19 0 0.0 9.7 0.00 0.00 0.00 78 1009.3
20260509104557 19 333 1.6 16.1 0.00 0.00 0.00 75 1009.2
20260509103053 20 0 1.6 14.5 0.00 0.00 0.00 72 1009.4
20260509101553 20 0 3.2 17.7 0.00 0.00 0.00 70 1009.4
20260509100054 20 0 0.0 9.7 0.00 0.00 0.00 83 1009.3
20260509094553 21 319 4.8 29.0 0.00 0.00 0.00 83 1009.1
20260509093055 21 0 1.6 16.1 0.00 0.00 0.00 88 1006.9
20260509091600 20 0 1.6 22.5 0.00 0.00 0.00 89 1005.9
20260509090052 20 0 1.6 14.5 0.00 0.00 0.00 88 1006.6
20260509084553 20 202 1.6 17.7 0.00 0.00 0.00 89 1007.1
20260509083051 19 238 0.0 16.1 0.00 0.00 0.00 89 1007.4
20260509081555 19 0 0.0 6.4 0.00 0.00 0.00 89 1008.0
20260509080051 20 0 0.0 8.0 0.00 0.00 0.00 90 1008.5
20260509074553 20 0 0.0 14.5 0.00 0.00 0.00 90 1008.8
20260509073053 20 0 0.0 6.4 0.00 0.00 0.00 88 1009.7
20260509071559 20 0 0.0 0.0 0.00 0.00 0.00 88 1010.8
20260509070059 20 0 1.6 12.9 0.00 0.00 0.00 89 1011.9
20260509064555 20 0 0.0 4.8 0.00 0.00 0.00 91 1012.2
20260509063052 20 0 0.0 3.2 0.00 0.00 0.00 91 1011.8
20260509061614 20 0 0.0 0.0 0.00 0.00 0.00 91 1011.9
20260509060117 20 0 0.0 4.8 0.00 0.00 0.00 91 1011.4
20260509054602 19 0 0.0 0.0 0.00 0.00 0.00 91 1011.2
20260509053052 20 0 0.0 3.2 0.00 0.00 0.00 90 1011.2
20260509051556 20 0 0.0 0.0 0.00 0.00 0.00 90 1010.3
20260509050125 20 0 0.0 0.0 0.00 0.00 0.00 89 1010.2
20260509044603 20 0 0.0 0.0 0.00 0.00 0.00 88 1010.4
20260509043051 20 0 0.0 0.0 0.00 0.00 0.00 88 1010.3
20260509041551 20 0 0.0 0.0 0.00 0.00 0.00 88 1010.4
20260509040057 21 0 0.0 0.0 0.00 0.00 0.00 87 1010.1
20260509034553 21 0 0.0 3.2 0.00 0.00 0.00 87 1009.7
20260509033052 21 0 0.0 4.8 0.00 0.00 0.00 87 1009.2
20260509031553 21 0 0.0 8.0 0.00 0.00 0.00 87 1009.1
20260509030054 21 0 0.0 6.4 0.00 0.00 0.00 87 1009.1
20260509024553 21 0 0.0 8.0 0.00 0.00 0.00 87 1008.3
20260509023102 21 0 0.0 0.0 0.00 0.00 0.00 86 1008.5
20260509021559 21 0 0.0 0.0 0.00 0.00 0.00 85 1008.6
20260509020054 21 0 0.0 0.0 0.00 0.00 0.00 84 1008.6
20260509014552 21 0 0.0 0.0 0.00 0.00 0.00 83 1008.8
20260509013100 22 0 0.0 0.0 0.00 0.00 0.00 82 1008.7
20260509011556 22 0 0.0 0.0 0.00 0.00 0.00 81 1008.5
20260509010053 22 0 0.0 0.0 0.00 0.00 0.00 79 1008.2
20260509004553 22 0 0.0 0.0 0.00 0.00 0.00 79 1007.8
20260509003103 22 0 0.0 0.0 0.00 0.00 0.00 78 1007.8
20260509001553 22 0 0.0 0.0 0.00 0.00 0.00 78 1008.2